{"data":{"norad_id":55783,"intl_designator":"2023-028AU","name":"STARLINK-5825","alt_names":[],"object_type":"PAYLOAD","status":"ACTIVE","operator":null,"country":"US","launch_date":"2023-03-03","launch_site_code":"AFWTR","launch_vehicle":null,"mission":null,"orbit_class":"UNKNOWN","rcs_meters":null,"size_class":null,"mass_kg":null,"dimensions":null,"purposes":["comms"],"wikipedia_slug":null,"has_3d_model":false,"image_url":null,"decayed_at":null,"tle_current":{"epoch":"2026-05-25T00:13:09.886080Z","epoch_age_seconds":88462,"freshness":"FRESH","line1":"1 55783U 23028AU  26145.00914220 -.00000148  00000+0 -46479-5 0  9998","line2":"2 55783  70.0004  12.2086 0002745 269.6401  90.4444 14.98330702178453","mean_motion":14.98330702,"eccentricity":0.0002745,"inclination_deg":70.0004,"raan_deg":12.2086,"arg_perigee_deg":269.6401,"mean_anomaly_deg":90.4444,"bstar":-4.6479e-6,"rev_number":17845,"period_min":96.106954097507,"perigee_km":570.14589271551,"apogee_km":573.96154742083,"semimajor_km":6950.1907200682,"source":"CELESTRAK","updated_at":"2026-05-25T13:38:17.886496Z"}}}